| time (UTC) | temp F | wind direction | speed MPH | gust MPH | rain 1hr in | rain 24hr in | rain mn in | humidity % | barometer mb |
| 20260506191504 | 67 | 242 | 0.0 | 3.0 | 0.00 | 0.06 | 0.01 | 72 | 1020.9 |
| 20260506190008 | 67 | 303 | 0.0 | 3.0 | 0.00 | 0.06 | 0.01 | 73 | 1021.0 |
| 20260506184516 | 66 | 32 | 0.0 | 3.0 | 0.00 | 0.06 | 0.01 | 73 | 1021.0 |
| 20260506183020 | 66 | 215 | 0.0 | 2.0 | 0.00 | 0.07 | 0.01 | 76 | 1021.1 |
| 20260506181504 | 65 | 159 | 0.0 | 3.0 | 0.00 | 0.07 | 0.01 | 74 | 1021.1 |
| 20260506180009 | 64 | 130 | 0.0 | 4.0 | 0.00 | 0.07 | 0.01 | 79 | 1020.9 |
| 20260506174512 | 63 | 281 | 1.0 | 4.0 | 0.00 | 0.07 | 0.01 | 76 | 1021.1 |
| 20260506173016 | 62 | 219 | 0.0 | 2.0 | 0.00 | 0.08 | 0.01 | 78 | 1021.1 |
| 20260506171523 | 62 | 269 | 0.0 | 2.0 | 0.00 | 0.08 | 0.01 | 79 | 1021.0 |
| 20260506170004 | 61 | 317 | 0.0 | 3.0 | 0.00 | 0.08 | 0.01 | 80 | 1021.2 |
| 20260506164510 | 60 | 202 | 0.0 | 2.0 | 0.00 | 0.08 | 0.01 | 80 | 1021.2 |
| 20260506163030 | 59 | 289 | 0.0 | 2.0 | 0.00 | 0.08 | 0.01 | 81 | 1021.2 |
| 20260506161520 | 58 | 149 | 0.0 | 0.0 | 0.00 | 0.08 | 0.01 | 82 | 1021.2 |
| 20260506160024 | 58 | 274 | 0.0 | 2.0 | 0.00 | 0.08 | 0.01 | 83 | 1021.3 |
| 20260506154504 | 57 | 265 | 0.0 | 2.0 | 0.00 | 0.09 | 0.01 | 86 | 1021.4 |
| 20260506153012 | 56 | 294 | 0.0 | 0.0 | 0.00 | 0.09 | 0.01 | 87 | 1021.4 |
| 20260506151517 | 56 | 294 | 0.0 | 1.0 | 0.00 | 0.09 | 0.01 | 89 | 1021.2 |
| 20260506150026 | 56 | 294 | 0.0 | 0.0 | 0.00 | 0.09 | 0.01 | 89 | 1021.2 |
| 20260506144527 | 55 | 294 | 0.0 | 0.0 | 0.00 | 0.09 | 0.01 | 90 | 1021.1 |
| 20260506143012 | 55 | 294 | 0.0 | 0.0 | 0.00 | 0.10 | 0.01 | 91 | 1021.1 |
| 20260506141515 | 55 | 294 | 0.0 | 0.0 | 0.00 | 0.10 | 0.01 | 91 | 1020.9 |
| 20260506140022 | 55 | 294 | 0.0 | 0.0 | 0.00 | 0.10 | 0.01 | 92 | 1020.8 |
| 20260506134526 | 55 | 294 | 0.0 | 0.0 | 0.00 | 0.10 | 0.01 | 91 | 1020.9 |
| 20260506133027 | 55 | 294 | 0.0 | 0.0 | 0.00 | 0.10 | 0.01 | 91 | 1020.8 |
| 20260506131514 | 55 | 294 | 0.0 | 0.0 | 0.00 | 0.11 | 0.01 | 91 | 1020.7 |
| 20260506130018 | 55 | 294 | 0.0 | 0.0 | 0.00 | 0.11 | 0.01 | 91 | 1020.7 |
| 20260506124505 | 55 | 294 | 0.0 | 0.0 | 0.00 | 0.11 | 0.01 | 91 | 1020.4 |
| 20260506123004 | 55 | 294 | 0.0 | 0.0 | 0.00 | 0.11 | 0.01 | 91 | 1020.4 |
| 20260506121508 | 55 | 294 | 0.0 | 0.0 | 0.00 | 0.12 | 0.01 | 90 | 1020.3 |
| 20260506120014 | 55 | 294 | 0.0 | 0.0 | 0.00 | 0.12 | 0.01 | 90 | 1020.3 |
| 20260506114522 | 55 | 294 | 0.0 | 0.0 | 0.00 | 0.12 | 0.01 | 89 | 1020.3 |
| 20260506113004 | 55 | 294 | 0.0 | 0.0 | 0.00 | 0.12 | 0.01 | 89 | 1020.1 |
| 20260506111512 | 55 | 294 | 0.0 | 2.0 | 0.00 | 0.13 | 0.01 | 88 | 1020.1 |
| 20260506110013 | 55 | 294 | 0.0 | 0.0 | 0.00 | 0.13 | 0.01 | 88 | 1020.0 |
| 20260506104519 | 55 | 294 | 0.0 | 0.0 | 0.00 | 0.13 | 0.01 | 87 | 1019.9 |
| 20260506103024 | 55 | 294 | 0.0 | 0.0 | 0.00 | 0.14 | 0.01 | 87 | 1019.9 |
| 20260506101507 | 55 | 294 | 0.0 | 1.0 | 0.00 | 0.14 | 0.01 | 87 | 1019.7 |
| 20260506100010 | 55 | 294 | 0.0 | 0.0 | 0.00 | 0.14 | 0.01 | 87 | 1019.7 |
| 20260506094514 | 55 | 294 | 0.0 | 0.0 | 0.00 | 0.14 | 0.01 | 86 | 1019.7 |
| 20260506093019 | 56 | 294 | 0.0 | 1.0 | 0.00 | 0.15 | 0.01 | 86 | 1019.7 |
| 20260506091523 | 56 | 294 | 0.0 | 2.0 | 0.00 | 0.15 | 0.01 | 86 | 1019.7 |
| 20260506090005 | 56 | 294 | 0.0 | 2.0 | 0.00 | 0.15 | 0.01 | 86 | 1019.8 |
| 20260506084513 | 56 | 294 | 1.0 | 3.0 | 0.00 | 0.15 | 0.01 | 85 | 1019.8 |
| 20260506083019 | 56 | 271 | 0.0 | 2.0 | 0.01 | 0.16 | 0.01 | 86 | 1019.8 |
| 20260506081519 | 56 | 290 | 1.0 | 3.0 | 0.01 | 0.16 | 0.01 | 85 | 1019.8 |
| 20260506073016 | 56 | 298 | 0.0 | 3.0 | 0.00 | 0.16 | 0.00 | 83 | 1019.3 |
| 20260506071519 | 56 | 295 | 0.0 | 1.0 | 0.00 | 0.16 | 0.00 | 83 | 1019.2 |
| 20260506061520 | 56 | 169 | 0.0 | 1.0 | 0.00 | 0.18 | 0.17 | 85 | 1018.7 |
| 20260506044527 | 57 | 188 | 0.0 | 2.0 | 0.00 | 0.20 | 0.17 | 81 | 1018.2 |
| 20260506043007 | 57 | 180 | 0.0 | 1.0 | 0.00 | 0.20 | 0.17 | 80 | 1018.0 |
| 20260506041517 | 57 | 137 | 0.0 | 1.0 | 0.00 | 0.21 | 0.17 | 82 | 1017.8 |
| 20260506040037 | 57 | 140 | 0.0 | 0.0 | 0.00 | 0.21 | 0.17 | 80 | 1017.6 |
| 20260506034520 | 57 | 140 | 0.0 | 2.0 | 0.00 | 0.22 | 0.17 | 80 | 1017.4 |
| 20260506033023 | 57 | 228 | 0.0 | 1.0 | 0.01 | 0.22 | 0.17 | 80 | 1017.2 |
| 20260506031521 | 57 | 163 | 0.0 | 2.0 | 0.01 | 0.22 | 0.17 | 80 | 1017.0 |
| 20260506030015 | 58 | 170 | 0.0 | 2.0 | 0.01 | 0.23 | 0.17 | 80 | 1016.7 |
| 20260506024520 | 58 | 302 | 0.0 | 2.0 | 0.01 | 0.23 | 0.17 | 80 | 1016.5 |
| 20260506023025 | 58 | 289 | 1.0 | 3.0 | 0.00 | 0.23 | 0.16 | 78 | 1016.5 |
| 20260506021526 | 59 | 132 | 0.0 | 2.0 | 0.00 | 0.23 | 0.16 | 77 | 1016.4 |
| 20260506020010 | 59 | 323 | 1.0 | 2.0 | 0.00 | 0.23 | 0.16 | 78 | 1016.2 |
| 20260506014514 | 60 | 82 | 1.0 | 6.0 | 0.00 | 0.24 | 0.16 | 77 | 1016.1 |
| 20260506013019 | 60 | 137 | 1.0 | 7.0 | 0.00 | 0.24 | 0.16 | 76 | 1016.0 |
| 20260506011524 | 61 | 280 | 1.0 | 4.0 | 0.00 | 0.24 | 0.16 | 76 | 1015.9 |
| 20260506010026 | 61 | 144 | 0.0 | 3.0 | 0.00 | 0.25 | 0.16 | 77 | 1015.8 |
| 20260506004521 | 61 | 336 | 1.0 | 4.0 | 0.00 | 0.25 | 0.16 | 77 | 1015.8 |
| 20260506003016 | 61 | 116 | 1.0 | 4.0 | 0.01 | 0.25 | 0.16 | 77 | 1015.7 |
| 20260506001522 | 61 | 111 | 0.0 | 3.0 | 0.01 | 0.26 | 0.16 | 77 | 1015.6 |
| 20260506000024 | 61 | 125 | 0.0 | 4.0 | 0.01 | 0.26 | 0.16 | 77 | 1015.6 |
| 20260505234528 | 62 | 123 | 0.0 | 4.0 | 0.01 | 0.26 | 0.16 | 76 | 1015.6 |
| 20260505233014 | 62 | 135 | 1.0 | 4.0 | 0.00 | 0.26 | 0.15 | 75 | 1015.6 |
| 20260505231528 | 63 | 139 | 0.0 | 7.0 | 0.00 | 0.26 | 0.15 | 75 | 1015.6 |
| 20260505230027 | 63 | 279 | 0.0 | 4.0 | 0.00 | 0.27 | 0.15 | 78 | 1015.5 |
| 20260505224524 | 63 | 105 | 0.0 | 3.0 | 0.01 | 0.28 | 0.15 | 75 | 1015.5 |
| 20260505223029 | 63 | 103 | 0.0 | 3.0 | 0.01 | 0.28 | 0.15 | 77 | 1015.6 |
| 20260505221517 | 63 | 140 | 1.0 | 6.0 | 0.01 | 0.28 | 0.15 | 76 | 1015.7 |
| 20260505220004 | 63 | 126 | 2.0 | 7.0 | 0.01 | 0.28 | 0.15 | 76 | 1015.7 |
| 20260505214506 | 63 | 123 | 2.0 | 6.0 | 0.00 | 0.27 | 0.14 | 76 | 1015.8 |
| 20260505213007 | 63 | 186 | 0.0 | 7.0 | 0.01 | 0.27 | 0.14 | 77 | 1015.8 |
| 20260505211504 | 63 | 142 | 0.0 | 10.0 | 0.01 | 0.27 | 0.14 | 76 | 1015.9 |
| 20260505210009 | 63 | 134 | 2.0 | 6.0 | 0.01 | 0.27 | 0.14 | 76 | 1016.0 |
| 20260505204505 | 63 | 181 | 1.0 | 4.0 | 0.01 | 0.27 | 0.14 | 77 | 1016.0 |
| 20260505203008 | 61 | 180 | 0.0 | 3.0 | 0.01 | 0.26 | 0.13 | 80 | 1016.1 |
| 20260505201510 | 61 | 134 | 0.0 | 7.0 | 0.01 | 0.26 | 0.13 | 81 | 1016.1 |
| 20260505200013 | 60 | 183 | 0.0 | 3.0 | 0.01 | 0.26 | 0.13 | 82 | 1016.3 |
| 20260505194509 | 60 | 159 | 1.0 | 3.0 | 0.01 | 0.26 | 0.13 | 81 | 1016.3 |
| 20260505193011 | 61 | 144 | 0.0 | 1.0 | 0.01 | 0.25 | 0.12 | 83 | 1016.3 |